RH
94 94 94 95 96 97 97 95 94 94 96 96 96 97 96 96 97 97 98 98 98 99 99 99 99 99 99 100 100 100 100 100 100 100 100 100 100 100 100 100 100 100 100 99 95 88 78 73 71 73 76 80 84 86 87 88 88 88 89 94 94 92 92 93 92 92 92 90 90 91 92 87 83 80 82 85 88 93 98 98 98 98 100 100 100 100
94 95 95 96 97 98 97 95 94 95 97 97 98 98 98 97 97 97 97 98 98 99 99 99 99 99 99 100 100 100 100 100 100 100 100 100 100 100 100 100 100 100 100 100 99 96 90 80 73 69 68 71 74 77 81 83 83 84 85 92 96 97 93 90 88 85 84 85 88 93 96 96 93 88 86 91 95 98 100 100 100 100 100 100 100 100
96 96 96 97 98 98 97 95 95 96 97 97 98 98 98 98 98 98 98 98 98 99 99 99 99 99 99 100 100 100 100 100 100 100 100 100 100 100 100 100 100 100 100 100 100 99 98 93 85 77 71 70 71 73 76 79 81 84 87 93 97 97 94 89 86 86 87 92 95 97 97 99 99 98 96 99 100 100 100 100 100 100 99 99 100 100
97 98 98 98 98 98 97 95 95 95 96 97 97 97 97 98 98 98 99 98 98 98 99 99 99 100 100 100 100 100 100 100 100 100 100 100 100 100 100 100 100 100 100 100 100 100 100 99 96 92 85 81 79 80 83 85 88 90 93 94 93 91 86 85 87 90 95 99 99 99 100 100 100 100 100 100 100 100 100 100 100 100 99 99 99 99
98 99 99 99 98 98 96 95 95 95 95 96 96 97 97 98 98 98 98 98 98 99 99 99 99 100 100 100 100 100 100 100 100 100 100 100 100 100 100 99 99 99 100 100 100 100 100 100 100 99 97 95 93 93 95 96 97 97 98 91 87 85 82 84 89 95 100 100 100 100 100 100 100 100 100 100 100 100 100 100 100 100 99 99 99 99
98 99 99 98 98 97 96 95 94 94 94 95 96 96 97 98 98 98 98 98 98 99 99 100 100 100 100 100 100 100 100 100 100 100 100 100 100 100 99 99 99 99 100 100 100 100 100 100 100 100 100 100 100 100 100 100 100 100 99 93 91 91 89 92 95 98 100 100 100 100 100 100 100 100 100 100 100 100 100 100 100 100 99 99 100 100
97 97 97 97 96 96 96 95 95 94 95 96 96 96 96 97 97 98 98 98 98 99 99 99 99 100 100 100 100 100 100 100 100 100 100 100 100 99 98 98 99 99 100 100 100 100 100 100 100 100 100 100 100 100 100 100 100 100 100 100 100 99 99 100 100 100 100 100 100 100 100 100 100 100 100 100 100 100 100 100 99 99 99 99 100 100
97 97 96 96 96 95 96 96 95 96 96 97 97 97 97 97 97 97 98 98 98 98 99 99 99 99 100 100 100 100 100 100 100 100 100 100 100 99 98 98 99 99 100 100 100 100 100 100 100 100 100 100 100 100 100 100 100 100 100 100 100 100 100 100 100 100 100 100 100 100 100 100 100 100 100 100 100 100 100 99 99 99 99 99 100 99
98 98 97 97 97 97 97 96 96 96 97 97 98 99 99 97 97 97 98 98 99 99 99 99 99 99 100 100 100 100 100 100 100 100 100 100 100 99 99 99 99 100 100 100 100 100 100 100 100 100 100 100 100 100 100 100 100 100 100 100 100 100 100 100 100 99 100 100 100 100 100 100 100 100 100 100 100 100 99 99 99 99 99 99 99 99
98 98 98 97 98 99 99 98 97 96 96 97 98 99 100 99 97 96 97 98 98 99 99 100 100 100 100 100 100 100 100 100 100 100 100 100 100 99 99 99 100 100 100 100 100 100 100 100 100 100 100 100 100 100 100 100 100 100 100 100 100 100 100 100 99 99 100 100 100 100 100 100 100 100 100 100 99 99 99 99 99 98 98 98 98 98
98 98 97 97 97 98 99 99 98 97 95 95 95 96 98 99 99 97 96 97 98 99 99 100 100 100 100 100 100 100 100 99 99 98 99 99 99 98 98 98 99 99 99 99 100 100 100 100 100 100 100 100 100 100 100 100 99 99 100 100 100 100 99 99 99 99 100 100 100 100 99 99 99 99 99 99 99 99 99 99 98 97 96 97 97 98
97 97 97 97 97 98 98 98 97 96 96 96 96 97 97 99 99 98 98 97 98 99 100 100 100 100 100 100 100 100 100 99 99 99 98 98 97 97 97 98 98 99 99 99 99 99 100 100 100 100 100 100 100 100 100 99 99 99 99 99 100 100 99 99 99 100 100 100 99 99 99 99 99 99 99 99 99 99 99 98 98 97 97 97 98 99
97 96 96 97 98 98 98 98 98 98 98 99 99 99 99 99 99 98 97 96 97 99 99 99 100 100 100 100 100 100 100 100 100 100 99 99 99 99 99 99 99 99 99 99 99 99 100 100 100 100 100 100 100 100 100 99 98 98 98 98 99 99 99 99 99 99 99 99 99 99 100 100 99 99 99 99 99 99 98 98 97 96 96 96 97 98
96 96 96 97 98 99 99 99 99 99 100 100 100 100 100 99 98 97 96 95 96 97 98 98 99 100 100 100 100 100 100 100 100 99 99 100 100 100 100 99 99 99 100 100 100 100 100 100 100 100 100 100 100 100 99 99 99 98 97 98 98 99 99 99 99 98 98 98 98 99 99 99 99 99 98 98 98 98 97 97 96 96 96 96 97 98
96 96 97 97 98 99 100 100 100 100 100 100 100 99 98 98 98 98 97 95 94 94 95 96 97 99 100 100 100 100 100 100 100 100 100 100 100 100 100 100 99 99 100 100 100 100 99 100 99 99 100 100 100 100 99 99 99 99 98 98 99 99 99 99 99 99 98 98 98 98 98 98 98 97 97 96 96 95 96 96 96 96 97 97 98 98
97 97 98 98 99 100 100 100 100 100 100 99 99 99 99 99 99 99 98 96 94 93 93 93 94 96 97 99 99 100 100 100 100 100 100 100 100 100 100 100 100 100 100 100 100 100 100 100 99 99 100 98 98 99 99 99 99 99 99 99 99 100 100 99 99 99 99 99 98 98 97 97 96 96 95 94 94 94 95 95 96 96 97 97 98 98
98 98 98 99 99 100 100 100 100 100 100 99 99 99 100 100 100 99 98 97 96 95 94 93 93 95 96 97 98 99 100 100 100 100 100 100 100 100 100 100 100 100 100 100 99 99 100 100 100 100 99 98 99 99 99 99 99 99 99 99 99 100 100 100 99 99 99 99 99 98 97 97 96 96 95 95 95 94 94 95 95 96 97 97 98 98
99 99 99 100 100 100 100 100 100 100 100 99 99 99 99 99 99 99 99 98 98 97 96 95 96 97 98 98 98 99 100 100 100 100 100 100 100 100 100 100 100 99 99 100 100 100 99 100 100 100 100 99 99 100 100 100 100 99 99 99 99 100 100 100 99 99 99 99 99 99 98 98 97 96 96 95 94 94 93 93 93 93 94 95 95 96
100 100 100 100 100 100 100 100 100 100 100 100 99 99 98 99 99 99 99 100 99 99 98 98 98 98 99 99 100 100 100 100 100 100 100 100 100 100 100 100 100 100 100 100 100 99 99 100 100 100 100 99 100 100 100 100 100 100 100 100 100 100 100 100 100 100 100 99 99 99 99 99 98 97 95 94 93 91 90 90 89 89 88 88 88 88
100 100 100 100 100 100 100 100 100 100 100 100 99 99 99 99 99 100 100 100 100 100 99 99 100 100 100 100 99 99 99 100 99 99 100 100 100 100 100 100 100 100 100 100 100 100 100 100 100 100 100 100 100 100 100 100 100 100 100 100 100 100 100 100 100 100 100 100 100 99 99 99 98 96 94 92 90 89 88 88 87 87 87 87 87 87
99 100 99 99 100 100 100 100 100 100 99 98 98 98 99 99 100 100 100 100 100 100 100 100 100 100 100 100 99 98 99 99 98 98 99 100 100 100 100 100 100 100 100 100 100 100 100 100 100 100 100 100 100 100 100 100 100 100 100 100 100 100 100 100 100 100 100 100 100 100 99 98 96 94 93 91 90 89 89 89 89 90 90 91 92 93
99 100 100 99 99 100 100 100 99 99 98 98 98 99 100 100 100 100 100 100 100 100 100 100 100 99 99 98 97 97 98 98 98 98 98 99 99 100 100 100 100 100 100 100 100 100 100 100 100 100 100 100 100 100 100 100 100 100 100 100 100 100 100 100 100 100 100 100 100 99 99 97 95 93 93 93 93 93 94 94 94 94 94 94 95 96
99 99 99 99 100 99 99 99 98 98 98 98 98 99 100 100 100 100 100 100 100 99 99 98 98 97 96 95 95 96 96 96 97 98 98 98 99 100 100 100 100 100 100 100 100 100 100 100 100 100 100 100 100 100 100 100 100 100 100 100 100 100 100 100 100 100 100 100 100 99 98 97 96 95 95 96 96 96 96 95 95 95 94 94 94 94
97 97 98 99 100 99 98 97 97 97 98 98 99 99 99 99 99 99 99 98 98 97 96 94 93 93 93 93 93 93 94 95 96 96 97 99 99 100 100 100 100 100 100 100 100 100 100 100 100 100 100 100 100 100 100 100 100 100 99 99 99 99 99 99 99 99 100 100 100 99 99 99 99 98 98 98 97 96 95 94 93 93 93 92 92 93
95 95 98 99 100 100 99 98 97 97 98 98 99 99 99 99 98 98 97 96 95 94 93 92 93 93 93 93 92 93 93 93 94 94 94 97 99 100 100 100 100 100 100 100 100 100 100 100 100 100 100 100 100 100 100 100 100 100 100 99 99 99 99 99 99 99 100 100 100 100 100 100 100 99 99 98 97 96 95 94 93 93 93 93 93 94
96 96 98 99 100 100 100 100 99 98 98 98 98 98 98 98 97 96 95 94 94 93 92 93 94 95 94 94 93 93 90 90 91 92 90 93 96 98 99 99 99 100 100 100 100 100 99 100 100 100 100 100 100 100 100 100 100 100 100 100 100 99 99 99 99 100 100 100 100 100 100 99 99 99 98 96 95 95 95 95 94 94 94 95 96 97
99 99 99 100 100 100 100 100 99 98 97 97 97 97 97 97 96 95 94 94 94 93 92 93 94 95 95 96 96 94 88 87 88 89 89 88 90 94 98 97 98 98 99 100 100 100 100 100 100 100 100 100 100 100 100 100 100 100 100 100 100 100 100 100 100 100 100 100 100 100 100 99 99 97 95 93 93 93 93 94 94 94 94 96 98 99
100 100 99 99 99 99 99 100 99 98 97 97 97 97 97 96 95 96 96 96 94 93 92 93 93 94 95 97 97 94 87 86 87 88 89 86 87 89 93 92 92 94 95 97 98 100 100 100 100 100 100 100 100 100 100 100 100 100 100 100 100 100 100 100 100 100 100 100 100 100 100 100 99 97 94 93 92 92 92 92 92 93 93 95 97 98
100 99 98 98 98 98 98 99 99 99 99 98 98 97 96 96 97 98 98 96 95 94 95 94 93 93 94 94 94 92 88 86 85 86 87 85 86 88 89 85 84 85 87 88 92 96 99 100 100 100 100 100 100 100 100 100 99 99 100 100 100 100 100 100 100 100 100 100 100 100 100 100 99 98 96 94 93 92 92 92 92 93 93 94 96 97
100 99 98 98 98 98 98 98 99 99 100 100 99 98 97 97 98 99 99 97 96 96 98 97 96 95 94 93 94 94 91 88 86 85 87 87 88 89 88 81 78 78 79 80 85 91 97 99 100 100 100 100 100 100 100 100 99 99 99 100 100 100 100 100 100 100 100 100 100 100 100 100 100 99 98 96 95 94 93 93 93 93 94 95 96 97
100 100 99 99 98 99 99 99 99 100 100 100 100 99 98 98 99 99 99 98 98 98 99 99 99 98 96 96 97 98 97 95 92 89 89 92 92 90 86 80 77 75 75 76 81 86 89 97 100 100 100 100 100 100 100 100 100 99 99 99 99 100 100 100 100 100 100 100 100 100 100 100 100 100 100 99 98 98 97 95 94 94 95 96 98 98
100 100 100 100 99 99 100 100 100 100 100 100 100 99 99 99 99 99 99 99 99 99 100 100 100 100 99 99 99 99 100 100 97 94 90 89 86 83 81 79 77 77 76 78 81 85 91 96 99 100 100 100 100 100 100 100 100 100 100 100 100 100 100 100 100 99 100 100 100 100 100 100 100 100 100 100 100 100 99 98 96 95 95 96 98 99
100 100 100 100 100 100 100 100 100 100 100 100 100 99 99 99 99 99 99 99 99 99 100 100 100 100 100 100 100 100 100 98 95 92 88 81 76 74 75 77 80 82 82 84 87 91 97 98 99 100 100 100 100 100 100 100 100 100 100 100 100 100 100 100 100 100 100 99 99 100 100 100 100 100 100 100 100 100 100 99 98 97 96 96 97 98
100 100 100 100 100 100 100 100 100 100 100 100 100 100 100 100 99 99 99 99 99 99 99 100 100 100 100 100 100 99 97 91 85 81 81 76 71 69 73 76 80 83 85 89 93 95 98 98 99 100 100 100 100 100 100 100 100 100 100 100 100 100 100 100 100 100 99 99 99 99 100 100 100 100 100 100 100 100 100 100 99 99 98 97 97 97
100 100 100 100 100 100 100 100 100 100 100 100 100 100 100 100 100 100 99 99 99 98 97 96 96 95 94 96 98 97 92 84 77 73 73 71 68 68 71 74 76 78 81 88 93 96 98 99 99 99 99 99 99 100 100 100 100 100 100 100 100 100 100 100 100 100 99 99 99 99 99 100 100 100 100 100 99 99 99 99 99 99 99 98 98 97
100 100 100 100 100 100 100 100 100 100 100 100 100 100 100 99 99 98 98 98 97 96 93 90 88 87 86 87 88 88 85 79 74 70 68 67 66 66 68 72 75 77 81 87 93 96 99 99 99 99 99 99 99 99 100 100 100 100 100 100 100 100 100 99 99 99 99 99 99 99 100 100 100 100 100 100 99 98 98 98 98 99 99 99 99 99
100 100 100 100 100 100 100 100 100 100 100 100 100 100 99 99 98 98 97 96 95 94 93 91 88 85 83 82 81 80 78 76 73 70 68 66 65 66 68 73 76 78 82 88 93 97 99 99 99 98 98 98 99 99 100 100 100 100 100 100 100 100 100 100 99 99 99 100 100 100 100 100 100 100 100 100 99 98 98 98 98 99 99 100 100 100
100 100 100 100 100 100 100 100 100 100 100 100 100 100 99 99 98 97 96 95 94 95 95 95 93 89 85 82 80 78 76 74 72 70 69 68 68 68 71 75 78 80 82 86 89 92 96 98 98 98 98 98 99 99 100 100 100 100 99 100 100 100 100 99 99 99 99 100 100 100 100 100 100 100 100 100 99 99 99 99 99 99 99 100 100 100
100 100 100 100 100 100 100 100 100 100 100 100 100 100 100 99 98 97 96 95 95 95 95 96 95 92 87 83 80 77 75 73 71 70 70 70 71 72 73 75 77 79 81 82 84 86 90 95 98 98 98 98 99 99 100 100 100 99 99 99 99 99 100 99 99 99 99 99 100 100 100 100 99 99 99 99 99 99 100 100 100 100 99 99 100 100
100 100 100 100 100 100 100 100 100 100 100 100 100 100 100 99 99 98 97 97 96 96 96 95 94 93 90 86 83 79 76 74 72 71 70 70 71 71 71 72 73 75 77 79 80 82 85 94 98 98 98 98 99 99 100 100 100 99 99 99 99 100 100 99 98 98 98 98 98 99 99 99 99 99 99 99 99 100 100 100 100 99 99 98 98 98
100 100 100 100 100 100 100 100 100 100 99 100 100 100 100 100 100 100 100 99 99 99 99 97 96 95 95 93 90 86 81 79 76 74 73 72 71 70 69 70 71 72 74 77 79 81 84 93 97 98 99 99 99 99 99 100 100 99 99 99 99 100 100 99 99 98 97 97 98 98 99 99 99 99 100 100 100 100 100 100 100 99 98 98 98 98
100 100 100 100 100 100 100 100 100 100 100 99 99 99 99 100 100 100 100 100 100 100 100 99 98 97 98 98 97 95 91 86 82 79 76 74 73 72 71 71 71 72 72 75 80 85 89 93 96 98 99 99 99 99 99 99 100 100 99 99 99 99 99 100 99 98 98 98 98 98 98 98 99 99 100 100 100 100 100 100 100 99 99 99 98 98
100 100 100 100 100 100 100 100 100 99 99 99 100 100 100 99 100 100 99 99 99 99 98 98 97 97 97 99 99 99 98 94 88 83 79 76 74 73 72 73 73 72 71 74 82 89 92 93 96 99 99 99 99 100 100 99 100 100 100 99 99 99 99 99 99 98 98 98 97 96 96 97 97 98 98 99 99 99 99 99 100 100 100 100 100 99
100 100 100 100 100 100 100 100 100 100 100 100 100 100 100 100 99 98 97 97 96 96 95 95 95 96 99 100 100 100 100 99 96 92 88 83 79 76 74 75 75 74 72 73 80 88 93 96 98 99 99 99 99 99 99 100 100 100 100 99 99 99 99 100 99 99 98 98 97 96 95 94 93 92 94 96 97 98 98 99 99 100 100 99 99 99
100 100 100 100 100 100 100 100 100 100 100 100 100 100 100 99 97 94 93 93 93 93 93 93 94 97 100 100 100 100 100 99 99 98 97 93 88 82 78 77 76 76 75 76 80 85 91 97 99 99 99 98 99 99 100 99 100 100 99 100 99 99 100 99 99 98 99 98 97 96 96 93 91 90 93 96 97 98 98 98 99 99 99 99 99 99
100 100 100 100 100 100 100 100 99 100 100 100 100 100 100 98 95 91 89 90 91 92 92 90 93 97 99 100 100 100 100 100 100 99 99 99 96 92 86 82 81 81 82 85 86 88 91 96 98 99 98 98 98 99 100 99 99 100 100 100 100 100 100 100 99 98 97 96 96 96 94 92 90 91 95 98 98 98 98 98 99 99 99 99 99 99
100 100 100 100 100 99 99 99 99 99 100 100 100 100 100 99 96 91 86 86 88 91 92 93 95 97 99 99 99 100 100 100 100 100 100 100 99 98 95 91 89 88 88 91 93 95 96 97 97 97 97 99 99 100 100 100 100 100 100 100 100 100 100 100 100 99 98 95 94 93 91 90 91 93 96 97 98 98 98 98 98 99 99 99 99 99
100 100 100 100 99 99 100 99 99 99 99 100 100 100 100 100 99 96 89 87 88 91 96 97 98 98 99 99 99 99 99 99 99 99 100 100 100 100 100 98 96 95 93 94 95 97 98 98 97 96 96 98 99 100 100 100 100 100 100 100 100 100 100 100 100 99 97 95 93 91 89 91 93 96 98 98 98 99 99 98 98 98 98 99 99 99
100 100 100 99 99 99 99 99 99 99 99 99 99 99 100 99 99 97 91 89 90 94 97 97 98 98 99 99 99 99 99 99 99 99 99 100 100 100 100 100 99 98 97 97 97 97 98 98 98 98 97 98 99 99 100 100 100 100 99 99 99 99 100 100 100 99 96 94 92 92 92 94 96 97 98 99 99 99 99 99 99 98 98 99 99 99
99 99 99 99 99 99 99 99 99 99 99 99 99 99 100 100 99 97 92 89 92 96 99 98 98 98 99 99 99 99 99 99 99 99 99 99 100 100 100 99 99 98 97 97 96 96 98 99 99 99 99 99 99 98 99 99 99 99 99 99 99 99 100 100 100 98 95 92 90 91 92 95 96 97 99 99 99 100 100 99 99 99 98 98 98 99
99 99 99 99 99 99 99 99 99 99 99 99 99 99 99 99 99 97 93 92 94 97 98 98 98 98 99 99 99 99 99 99 99 99 99 99 99 99 99 97 95 93 92 91 91 93 95 98 99 99 99 99 99 99 99 98 97 97 98 98 99 99 100 100 100 98 94 90 88 88 90 94 96 97 98 98 99 100 100 100 99 99 99 98 98 98
Wind_Speed
8 8 8 11 14 16 17 17 17 19 20 22 22 23 23 23 24 25 26 27 28 28 29 29 30 31 31 32 33 34 35 36 38 40 41 41 41 40 39 38 35 32 27 23 19 16 13 10 7 6 6 6 6 6 5 5 5 4 4 3 2 1 2 4 6 7 7 6 5 4 3 1 1 1 4 6 7 9 11 13 15 19 25 32 38 43
8 8 9 11 14 16 17 16 16 18 19 20 21 22 23 23 24 25 26 27 28 29 29 30 31 31 32 32 33 34 35 36 38 40 42 43 44 44 44 44 43 41 37 33 28 23 18 13 9 6 5 5 5 5 5 6 6 5 3 2 0 1 3 4 6 7 7 6 5 4 3 2 2 2 4 7 9 11 14 19 23 28 34 41 47 51
9 9 10 12 13 15 16 15 15 16 18 19 20 21 23 24 24 24 25 27 28 29 30 31 31 32 32 32 33 34 35 36 37 39 42 44 46 47 48 48 48 47 45 41 36 30 24 18 13 9 7 6 5 6 6 6 6 4 2 0 2 3 4 5 6 6 5 4 3 3 3 4 5 6 8 11 13 18 23 29 34 39 45 49 51 52
9 10 11 12 13 14 15 15 14 15 16 18 19 21 23 23 24 24 25 25 27 29 31 32 32 33 33 33 33 34 35 36 38 40 42 45 48 49 51 51 51 50 49 46 43 38 33 26 20 14 10 7 6 5 5 5 3 2 1 2 3 3 4 5 5 4 3 3 3 5 6 7 9 11 15 19 24 30 36 40 44 47 50 51 51 50
9 10 11 12 12 13 14 14 14 15 16 17 18 20 22 23 24 24 25 26 27 28 30 32 33 33 33 33 33 34 35 37 39 41 43 46 48 50 52 53 53 52 51 49 47 45 42 38 32 26 21 16 12 10 8 6 5 4 4 3 3 3 3 4 4 5 5 6 7 9 12 15 19 25 30 36 40 42 44 46 47 49 50 50 49 47
9 10 11 11 11 12 13 14 15 16 16 17 18 19 20 22 23 24 25 26 27 28 29 31 33 34 34 34 34 35 37 39 41 42 44 46 48 50 52 53 53 52 51 50 49 48 47 46 43 40 35 32 29 26 24 21 18 15 12 9 7 7 8 10 12 15 17 19 22 25 30 35 40 43 45 47 47 46 46 46 46 47 47 47 47 46
9 10 11 12 11 11 12 14 16 17 17 17 17 18 19 20 22 24 25 26 27 28 29 30 32 34 35 35 35 36 38 40 42 43 45 46 48 50 51 52 52 52 51 51 50 49 49 49 48 48 46 44 42 40 37 36 34 32 31 28 27 27 28 30 32 35 38 40 43 46 49 51 51 51 50 49 47 46 45 45 45 46 46 46 45 45
9 11 12 12 12 11 12 13 15 16 17 16 16 17 18 19 20 22 24 26 27 28 29 30 32 34 35 35 36 37 38 40 41 43 44 45 47 49 50 51 51 51 51 50 50 50 49 50 50 51 52 51 50 49 48 48 48 48 48 49 49 49 50 51 52 53 55 55 55 55 55 54 53 52 51 49 48 47 46 46 45 45 45 44 43 42
9 11 12 12 12 11 11 12 14 15 15 15 15 16 16 17 17 19 23 25 27 28 29 29 30 32 33 35 36 36 38 39 40 41 42 43 45 47 48 49 50 50 50 50 50 49 49 50 51 53 55 55 55 55 54 54 54 54 54 56 57 58 59 59 59 58 58 57 56 55 55 54 53 52 51 49 48 47 46 45 44 43 42 41 40 38
10 11 11 11 12 12 11 12 12 13 13 13 14 15 15 16 16 17 20 22 24 26 28 29 29 30 32 34 35 36 37 39 40 41 41 42 43 45 47 47 48 49 50 50 50 49 49 50 51 52 54 56 56 56 56 56 56 56 56 56 57 58 58 58 57 57 56 55 54 54 53 53 52 51 50 48 47 46 44 43 42 41 39 37 35 34
11 11 11 11 11 12 12 12 12 12 12 13 14 15 16 16 15 15 16 18 20 23 26 28 28 29 30 32 33 35 36 38 40 41 42 43 44 45 46 47 47 48 49 50 50 50 50 49 49 50 51 53 54 55 56 56 57 57 57 56 56 57 57 56 55 54 53 53 52 52 51 50 50 49 48 47 45 44 42 41 40 39 37 34 32 31
10 11 11 11 11 11 12 13 12 12 14 14 14 14 16 16 15 14 13 14 16 19 21 25 28 30 30 30 31 33 34 35 37 39 42 43 44 45 45 46 45 46 47 49 50 50 50 49 49 48 49 50 51 52 53 54 55 55 56 55 55 55 54 54 53 52 51 51 50 49 48 48 47 46 45 44 43 42 41 40 39 37 35 32 30 29
11 11 11 11 11 12 12 13 13 14 14 14 13 12 12 13 13 13 13 13 14 16 18 21 25 29 31 32 31 31 31 32 35 38 40 41 42 42 42 43 43 43 45 46 47 48 48 48 48 48 47 48 48 49 50 50 51 51 52 52 51 51 50 50 49 49 48 47 47 46 46 45 45 44 43 42 41 40 39 38 37 35 33 31 29 29
11 11 11 11 11 11 12 12 12 12 12 13 12 12 11 11 11 12 12 13 13 14 16 19 22 25 30 32 32 31 30 30 33 36 39 40 40 40 40 41 41 41 43 44 44 45 46 47 47 47 46 46 46 47 48 48 48 48 48 48 47 46 46 45 45 44 44 44 43 43 43 43 43 42 41 40 39 38 37 36 35 33 31 30 29 28
11 11 9 8 8 9 10 11 10 11 11 12 12 11 11 11 12 13 13 12 11 12 14 18 20 23 26 29 30 30 29 29 30 33 36 37 38 39 39 40 41 42 42 42 42 43 45 45 45 45 45 45 45 45 46 46 46 46 45 45 44 43 43 42 42 41 41 41 41 41 41 40 40 39 39 38 37 36 35 34 32 31 30 29 29 28
11 10 8 7 7 8 9 10 10 11 12 12 12 12 12 12 13 13 13 12 11 11 12 15 16 18 21 25 28 29 28 27 27 30 32 34 35 37 38 39 40 41 42 42 41 42 43 44 44 44 44 43 43 44 44 44 44 44 44 43 42 41 41 40 40 39 39 38 38 38 37 36 36 35 35 35 34 33 33 32 31 30 30 29 29 28
12 10 9 7 7 8 9 10 11 11 12 12 12 12 12 12 12 12 12 12 11 11 11 11 9 7 9 16 23 27 27 24 24 26 30 31 32 34 36 37 37 38 41 42 42 42 42 43 43 43 42 42 42 42 42 42 43 43 43 42 41 41 40 39 38 38 37 36 35 34 33 32 32 32 32 33 33 32 32 31 30 29 29 28 28 28
12 11 9 8 7 8 10 11 11 11 11 11 11 12 12 12 12 13 12 12 12 12 12 11 9 5 4 7 14 21 24 22 21 24 28 29 30 32 34 35 36 38 39 41 42 42 43 43 42 42 41 40 40 40 40 40 41 41 41 41 40 40 39 38 38 37 35 34 33 32 31 31 31 31 31 32 32 31 31 31 30 29 28 27 27 26
13 12 10 8 8 9 10 11 11 10 10 10 10 11 12 12 13 14 13 13 13 13 13 12 11 10 8 7 10 15 20 20 20 22 25 26 28 30 32 34 35 37 38 39 40 41 42 42 42 41 40 39 39 39 39 39 39 39 39 39 39 38 38 38 37 36 35 34 32 31 31 31 31 31 31 31 31 31 30 30 30 29 28 27 26 25
14 12 11 9 9 10 11 10 10 9 9 9 10 11 11 12 13 14 14 14 14 15 15 15 13 12 12 12 12 13 17 19 19 20 22 24 26 28 31 31 33 34 36 37 38 39 40 41 41 41 40 39 38 38 38 37 37 37 36 36 36 36 36 36 36 35 34 33 32 31 30 30 29 29 29 30 30 30 30 30 30 29 28 27 26 25
16 14 11 10 10 10 10 10 9 9 9 10 11 12 12 12 13 14 14 15 15 15 17 16 15 14 15 15 13 13 16 18 17 17 18 21 24 26 28 29 31 32 33 34 35 37 38 40 40 40 39 38 37 37 37 36 36 36 35 35 35 35 35 34 34 33 33 32 30 30 29 29 28 29 29 30 31 31 31 31 30 29 29 28 27 26
17 15 11 10 10 10 10 9 9 9 10 12 12 12 12 12 13 13 14 15 15 16 17 16 16 16 17 16 14 13 16 19 17 15 16 17 20 23 26 27 29 31 31 31 32 34 36 37 38 38 37 37 37 37 36 35 35 35 34 34 34 34 33 33 33 32 32 31 30 29 28 28 28 29 30 31 31 32 32 31 31 30 29 28 27 26
18 15 12 10 10 9 9 9 9 10 11 12 13 13 13 14 15 15 15 16 17 18 19 19 19 18 18 17 16 15 17 19 19 19 16 14 15 19 23 25 27 29 29 29 30 32 33 35 36 36 36 36 36 36 35 35 34 33 33 33 33 33 33 33 32 32 31 30 29 28 28 28 29 29 30 31 31 31 31 31 31 30 30 29 28 27
17 15 12 10 9 9 9 9 9 10 11 11 12 13 15 16 16 16 17 18 18 19 20 20 20 20 20 21 20 20 20 21 21 21 19 15 15 18 22 24 25 26 27 28 29 30 32 33 34 35 35 35 35 35 35 34 33 33 32 31 31 32 32 32 32 32 31 31 30 29 29 29 29 30 30 31 31 31 31 31 31 31 30 30 29 28
16 14 12 10 10 9 9 9 9 9 9 10 11 12 13 15 15 16 16 17 17 17 18 19 19 18 18 21 22 22 21 23 24 23 19 15 15 19 22 25 25 24 24 26 28 30 32 33 33 33 34 34 34 34 34 34 34 33 32 31 30 30 30 31 31 31 31 31 30 30 29 29 29 30 30 30 31 31 31 31 31 31 30 30 29 28
16 15 12 11 11 10 9 8 8 8 8 9 10 11 12 12 13 14 15 14 14 14 16 16 15 14 15 17 19 19 20 21 23 23 19 15 15 18 22 26 26 24 24 26 28 30 32 32 32 32 32 32 32 32 32 33 33 33 32 31 30 29 29 29 29 29 30 29 29 29 28 28 28 28 29 29 29 30 30 30 30 30 30 30 29 28
15 14 13 11 11 10 9 9 8 8 9 9 9 10 11 11 13 14 14 13 12 12 13 13 12 11 13 14 15 16 17 18 20 21 20 18 15 14 18 23 25 25 25 26 28 29 30 30 31 31 31 31 31 31 31 32 33 33 33 32 31 30 29 28 28 28 28 28 27 27 27 26 26 26 26 27 27 28 28 29 29 29 29 29 29 28
15 14 13 11 10 10 9 9 9 9 8 8 8 8 9 12 14 14 12 10 10 12 13 12 10 9 9 10 11 13 15 15 15 15 16 13 10 10 13 16 19 21 22 23 26 30 30 30 30 29 29 29 29 30 31 31 32 33 33 32 32 31 30 29 28 27 27 27 26 26 26 25 25 25 25 25 25 26 27 27 28 28 29 29 28 27
14 13 13 11 10 9 9 9 8 8 7 6 6 8 10 13 14 14 11 10 11 13 13 13 12 10 9 9 11 13 15 14 13 12 13 8 6 7 9 9 10 12 13 14 20 26 29 29 29 28 27 27 28 28 29 30 31 31 32 32 31 31 31 30 29 28 27 26 26 26 25 25 24 23 23 23 23 24 25 25 26 27 27 27 27 26
13 13 12 11 10 9 8 8 7 6 6 5 6 8 10 13 14 14 12 12 13 14 13 12 11 10 8 7 7 8 10 11 11 12 13 8 5 5 7 6 5 5 4 5 7 12 19 24 26 27 26 26 27 27 28 28 29 29 30 30 30 30 30 29 29 28 28 27 26 26 25 24 23 22 22 22 22 22 23 24 25 25 26 26 26 25
13 12 12 10 9 8 7 7 6 6 5 5 6 8 10 12 14 14 14 14 14 14 13 11 9 7 5 3 2 2 3 6 7 8 10 7 5 5 6 6 6 5 3 3 3 2 5 12 20 25 26 26 26 27 26 27 27 27 28 28 28 28 28 27 27 27 27 27 26 26 25 24 23 22 21 21 21 21 22 22 23 23 24 24 24 24
13 12 11 10 8 7 7 6 6 6 6 7 8 9 10 12 13 13 13 13 13 12 11 11 10 9 9 8 5 2 1 3 3 5 7 6 5 6 7 9 11 11 8 8 7 5 2 3 11 21 25 26 26 26 26 26 26 26 26 26 26 26 26 25 25 26 26 26 25 25 25 24 24 23 22 21 21 21 21 21 21 21 21 22 22 22
15 14 12 11 9 9 8 8 8 8 9 9 9 10 10 11 10 10 10 10 10 10 11 12 13 13 14 14 11 7 4 3 3 4 6 6 6 7 9 13 16 18 16 16 14 12 10 7 8 15 22 25 26 26 26 25 25 25 25 25 25 25 24 24 24 24 24 24 24 24 24 23 23 23 22 22 21 21 20 20 19 19 19 20 20 20
18 16 15 14 13 12 11 11 11 11 11 12 11 11 11 10 10 10 10 10 11 12 13 14 15 15 16 15 14 11 9 7 6 6 7 7 6 7 12 16 19 19 19 17 18 17 14 11 9 9 14 21 24 25 25 25 24 24 24 25 25 25 24 24 24 24 23 23 23 23 23 22 22 22 21 21 20 20 19 19 18 18 18 18 18 18
20 19 18 17 17 16 15 14 14 14 14 14 14 13 13 13 13 14 14 15 16 16 17 17 17 17 17 16 14 13 12 10 9 9 9 9 9 10 12 14 16 17 16 14 13 12 10 11 11 10 10 15 20 24 24 24 23 23 23 24 24 24 24 24 24 23 23 23 23 23 23 22 22 21 21 20 19 18 18 18 18 18 18 17 17 17
21 20 19 19 18 18 18 18 17 17 17 17 17 17 17 17 17 18 19 19 20 20 21 20 20 19 19 19 18 16 14 12 11 10 10 11 12 11 9 10 13 16 15 14 14 14 13 13 15 15 14 12 14 18 21 22 23 23 23 23 23 23 23 23 23 23 23 24 24 23 23 22 22 22 21 19 18 17 17 17 18 18 18 17 17 16
20 19 19 19 19 19 19 19 20 19 19 19 19 19 19 19 19 20 20 20 20 21 21 21 21 20 20 19 19 17 15 13 11 10 10 11 12 12 11 12 15 18 19 19 20 21 19 15 14 15 15 13 11 11 15 21 23 23 23 23 23 23 22 22 22 23 23 24 24 23 23 23 23 22 21 20 18 18 18 18 18 18 18 18 17 17
19 19 19 19 19 20 20 20 20 20 19 19 19 18 18 18 18 19 19 19 19 20 20 20 20 20 20 19 18 17 15 14 13 12 12 12 13 14 16 18 18 19 20 21 22 23 21 15 11 9 10 13 14 15 17 21 22 23 23 23 23 23 22 22 22 22 23 23 23 23 23 23 23 23 23 22 21 20 20 19 19 18 18 18 18 18
19 19 19 19 19 19 20 20 20 19 18 17 17 16 16 16 16 16 17 18 18 19 19 20 20 20 20 19 19 18 16 15 14 14 14 14 14 15 16 17 18 18 17 17 18 19 20 18 13 10 9 11 14 17 20 21 22 22 23 24 24 24 23 22 22 22 22 22 23 23 23 23 24 24 24 24 24 23 23 22 21 20 19 19 19 19
19 19 19 19 19 20 20 20 18 17 17 16 16 15 14 15 15 15 15 16 16 17 17 18 19 19 20 20 19 18 17 16 15 14 13 13 13 12 12 13 14 14 14 14 16 18 21 22 21 18 16 14 13 15 18 19 20 21 22 22 23 23 23 23 22 22 22 22 23 23 23 23 24 25 25 26 26 25 25 23 22 21 20 20 21 21
19 20 20 20 20 19 18 17 17 16 16 15 14 14 14 14 14 15 15 15 16 16 16 17 18 18 19 19 19 18 17 16 15 13 12 12 11 10 11 11 11 12 14 16 19 21 23 26 26 24 23 21 19 18 18 18 18 19 21 20 20 21 22 22 22 22 22 22 22 22 22 23 23 24 25 25 25 24 23 23 22 22 21 21 21 22
20 20 20 20 20 19 17 16 16 15 15 14 14 13 13 13 14 15 16 17 17 17 17 18 19 20 21 20 19 18 18 17 16 15 13 12 11 11 12 13 13 15 17 20 23 24 24 26 26 25 23 22 20 19 18 17 17 18 18 17 17 17 19 21 21 21 22 22 22 21 21 22 23 23 23 23 23 22 22 22 22 22 22 22 22 22
19 20 20 20 19 18 17 16 15 14 14 14 14 13 11 11 12 14 17 18 19 19 18 19 20 21 22 22 21 20 19 18 17 16 15 15 14 14 14 15 16 16 17 21 24 25 24 24 24 23 22 22 22 21 19 18 18 18 17 16 16 14 11 15 18 20 20 21 21 21 21 21 21 21 22 22 22 22 22 22 22 22 23 23 23 23
20 21 21 20 19 18 17 16 15 15 14 14 14 13 11 10 11 14 17 19 20 20 20 20 21 22 22 23 22 21 20 18 17 17 17 16 15 15 16 16 16 16 16 19 22 24 23 24 24 24 23 24 24 23 21 20 20 20 19 19 20 19 16 15 16 18 19 19 20 20 20 20 20 20 21 22 22 22 22 23 23 23 23 23 23 24
22 22 21 19 19 18 17 16 15 15 14 14 14 13 12 10 11 14 17 19 19 19 19 19 19 19 19 19 20 20 21 20 19 18 17 16 16 16 16 17 17 17 17 18 20 22 23 24 24 23 24 25 25 24 22 20 20 19 19 19 19 19 18 16 16 17 17 18 18 18 18 18 18 20 22 23 24 24 23 23 23 23 23 23 23 23
22 21 20 19 18 18 17 16 15 15 15 14 13 12 11 10 11 13 15 16 17 17 17 18 18 17 16 16 16 17 19 20 20 20 19 18 17 17 17 18 19 19 20 21 21 21 21 23 24 24 25 25 25 24 22 21 20 19 18 18 17 17 16 16 16 16 16 16 16 16 16 16 18 21 23 24 24 24 23 23 23 22 22 23 23 23
20 20 20 20 19 18 17 16 16 16 15 14 13 12 11 10 10 11 13 15 16 17 18 19 20 20 18 16 16 16 17 18 19 20 20 19 19 18 18 19 19 20 22 23 23 23 22 22 21 22 23 24 23 21 21 20 20 19 18 17 17 17 17 17 16 16 15 16 16 15 15 17 20 22 23 23 23 23 23 23 22 22 22 22 22 22
20 20 21 21 20 19 17 16 16 16 16 15 14 12 11 10 10 11 13 15 17 19 19 20 21 21 19 17 17 17 17 18 18 19 20 20 19 19 19 19 20 21 22 23 23 24 23 21 20 20 21 23 21 20 19 19 18 18 17 17 17 17 17 16 15 15 15 15 15 15 16 18 20 22 22 22 22 22 22 22 22 22 21 21 21 21
21 21 21 21 20 19 18 17 16 16 16 16 14 13 11 10 10 11 14 16 18 18 19 19 19 18 17 17 16 16 17 17 18 18 18 18 18 18 18 19 20 21 22 23 23 23 23 22 21 20 19 21 21 20 19 18 17 17 17 17 17 17 16 15 14 14 14 15 15 15 16 18 19 20 21 21 20 20 21 22 22 22 21 21 21 21
22 22 22 21 20 19 18 17 17 17 17 16 16 15 13 12 12 13 14 16 18 18 18 19 18 18 17 16 16 16 15 16 16 16 15 15 16 16 17 18 19 20 21 22 22 22 22 22 22 21 19 18 18 18 17 17 16 16 16 16 15 15 14 14 13 13 13 14 15 16 17 18 19 20 20 20 19 19 20 21 22 22 22 21 21 21
22 21 21 20 19 19 18 18 17 17 17 17 16 16 15 14 14 14 15 16 17 18 18 18 18 18 17 16 15 15 14 15 14 13 12 12 12 12 13 14 15 15 14 14 13 14 15 15 15 16 18 17 16 15 15 15 15 15 15 14 14 13 12 12 12 12 13 14 15 17 18 19 19 19 19 19 18 17 18 19 20 21 21 21 21 21
Wind_Direction
12 12 15 20 20 19 21 27 31 32 32 34 35 36 39 41 42 43 44 43 42 40 40 41 42 41 39 35 34 35 37 38 39 41 43 45 46 46 45 44 43 40 37 32 26 19 13 6 357 348 344 341 341 341 337 330 327 332 345 354 351 300 188 165 157 152 151 151 152 156 165 174 162 158 170 167 167 171 172 168 160 153 148 145 141 136
13 16 18 22 22 21 22 31 36 35 33 33 34 35 37 39 41 43 45 45 43 42 41 42 43 43 41 38 37 38 40 40 40 41 43 45 46 47 47 46 45 44 43 41 37 31 26 21 19 14 7 359 352 343 331 319 312 313 324 346 335 216 206 185 171 162 155 152 151 157 172 192 195 173 160 159 160 158 152 145 139 135 132 129 127 125
7 10 15 22 25 24 23 31 38 40 38 36 36 38 39 40 40 41 42 43 44 44 43 43 43 43 42 41 40 41 42 42 42 42 43 45 47 48 49 48 48 47 46 46 45 43 40 37 34 28 18 2 344 327 312 304 300 299 299 237 187 200 200 187 175 164 150 138 137 149 162 174 173 161 149 147 143 137 131 127 125 122 119 117 117 118
7 7 11 21 28 29 28 32 37 42 43 42 42 43 44 42 41 41 43 44 44 45 45 44 44 43 42 42 42 43 44 45 45 45 45 47 49 50 51 51 50 49 48 48 49 51 53 55 55 51 40 22 357 334 319 310 305 300 175 157 174 187 183 178 174 166 145 133 143 155 160 161 153 141 131 126 123 121 119 118 116 114 113 112 112 112
15 15 18 25 30 33 34 37 41 45 48 48 47 46 46 43 42 43 45 47 47 46 45 45 44 44 43 42 43 44 46 48 48 48 49 50 51 52 53 53 52 50 50 49 50 52 56 61 65 67 66 64 63 63 65 68 74 88 108 128 150 168 166 166 159 144 130 131 137 139 136 130 123 118 116 114 113 113 113 112 111 110 109 109 109 109
25 28 32 36 38 38 38 39 42 46 48 49 49 49 47 45 43 43 45 46 47 47 46 45 45 45 45 44 44 45 48 51 52 52 53 53 53 54 54 53 52 51 51 50 50 51 54 59 65 70 74 76 78 81 83 85 87 90 93 98 108 119 127 127 122 117 115 116 116 115 113 112 111 110 109 109 108 107 107 106 106 106 106 106 107 107
37 41 45 48 51 50 43 39 40 43 43 43 45 49 50 47 45 43 44 45 46 48 48 48 48 48 47 46 46 47 49 52 54 55 56 56 55 55 55 54 53 52 52 52 51 51 53 56 61 67 72 76 79 82 84 85 87 89 92 95 100 105 109 110 109 108 107 107 107 106 106 105 105 105 104 103 102 101 100 100 100 101 101 102 104 106
44 47 49 51 53 53 48 42 41 40 40 39 38 40 43 46 45 44 45 47 47 48 49 50 50 49 48 47 47 48 49 51 53 55 55 55 56 56 56 55 54 53 52 52 52 52 53 55 58 62 68 72 76 79 81 83 85 87 90 93 97 100 102 102 102 102 102 102 102 102 102 101 101 101 100 99 97 96 96 96 96 96 97 98 99 101
53 50 50 50 48 45 42 41 41 41 41 40 37 35 34 37 41 43 46 46 46 47 48 48 48 48 48 48 48 49 50 52 53 54 54 54 54 55 56 55 54 53 53 52 52 53 53 55 58 61 65 69 72 75 77 79 81 84 87 90 93 95 97 98 98 99 98 99 99 99 99 99 99 99 98 97 97 96 96 95 94 94 94 93 93 94
62 57 55 53 50 46 40 35 37 42 47 48 45 41 37 34 35 40 43 43 43 45 47 47 46 45 47 49 49 50 52 55 57 57 55 55 55 56 56 55 54 53 53 53 53 52 53 55 58 61 65 68 71 73 75 77 78 80 82 85 89 92 94 96 96 97 97 98 98 98 99 99 99 99 99 99 99 99 98 97 96 94 93 92 92 91
65 63 60 56 53 50 46 40 38 44 55 59 57 52 45 39 37 38 40 40 41 43 45 47 47 45 45 46 48 50 53 54 57 58 58 58 57 58 57 56 55 54 54 54 53 53 54 55 58 61 64 68 70 72 74 76 77 79 80 82 85 89 92 94 95 96 97 97 98 98 98 99 99 100 100 100 100 100 99 98 96 95 95 94 94 95
70 66 62 58 52 46 44 45 47 50 52 51 47 40 35 35 38 41 41 42 42 43 45 48 49 49 48 46 47 49 51 52 53 54 56 57 57 57 56 55 54 53 53 53 53 53 54 55 57 60 63 67 71 73 74 75 77 78 80 81 83 86 89 91 93 94 95 95 96 96 96 97 97 98 98 98 98 98 97 96 96 96 96 97 97 97
75 72 66 60 50 42 39 39 40 39 37 34 30 23 17 22 34 44 50 52 51 51 52 52 52 52 53 53 52 51 51 51 52 54 54 54 53 52 52 52 51 50 50 50 49 49 51 53 55 57 61 65 70 73 75 76 77 78 78 79 81 83 85 87 89 90 91 92 93 93 94 94 95 95 95 95 95 95 95 95 96 97 98 99 100 100
78 74 67 57 47 41 37 36 35 32 28 27 27 24 22 26 35 46 54 58 59 61 62 61 57 54 54 55 55 55 53 53 54 56 55 53 52 52 52 51 50 50 50 48 47 46 48 50 52 54 58 62 67 72 75 77 78 78 79 79 80 81 83 84 86 87 88 90 91 92 92 92 92 92 91 91 91 92 93 95 96 98 100 102 103 104
80 75 66 56 46 40 36 36 37 36 33 33 34 37 41 41 43 46 49 51 57 65 69 68 64 58 53 52 55 57 56 55 55 55 55 53 53 54 54 53 53 52 51 49 46 46 47 49 50 52 56 60 65 70 74 77 79 80 81 81 82 83 84 85 86 87 89 90 91 91 91 90 89 88 87 87 88 90 93 96 99 102 104 105 105 104
84 79 70 62 51 43 39 40 41 42 41 42 44 45 44 40 41 45 46 48 54 63 69 72 70 62 54 53 55 57 56 55 56 57 56 52 52 54 56 55 54 53 52 50 48 47 47 48 49 52 55 60 65 70 73 76 79 82 83 84 85 85 86 87 88 89 90 91 91 91 90 88 86 84 83 83 85 88 92 96 100 103 105 105 105 103
86 80 75 66 55 47 44 47 50 51 51 51 50 50 48 46 47 50 52 54 56 57 59 66 69 64 52 46 50 55 58 56 57 59 58 54 52 53 57 56 55 54 53 52 50 49 48 48 49 51 54 59 65 70 73 76 79 81 83 85 87 87 88 89 90 91 92 92 92 92 90 88 86 84 83 82 84 86 90 94 98 101 103 104 104 104
86 81 74 66 57 51 49 52 55 58 60 57 55 57 59 60 60 60 59 61 60 59 59 62 63 65 58 28 35 47 60 60 60 61 60 56 52 53 57 58 57 56 55 53 53 53 52 50 50 50 54 59 64 68 72 75 78 80 83 85 86 88 89 90 91 92 93 94 94 93 92 90 88 86 85 85 85 87 89 91 94 96 98 100 101 102
88 82 74 66 61 59 57 57 59 61 62 60 62 64 64 65 66 66 64 64 64 66 69 67 64 62 60 38 33 47 62 66 67 65 62 57 53 53 56 58 58 58 56 54 54 54 55 54 53 53 55 59 63 67 71 74 77 80 83 84 86 87 88 89 91 92 93 93 94 93 92 90 89 88 87 86 86 87 88 89 91 92 94 95 96 96
91 81 74 73 71 67 62 63 66 69 71 75 78 76 72 70 69 68 67 68 69 72 74 71 65 59 55 48 47 56 67 73 73 70 66 59 53 52 55 57 58 58 56 55 55 56 57 56 55 54 55 57 61 65 69 72 76 79 82 84 85 86 87 88 89 90 91 92 92 91 90 89 88 87 86 86 86 86 86 87 88 89 90 91 92 93
92 84 81 84 82 75 69 70 72 77 84 91 90 86 81 77 73 71 72 73 73 73 73 70 65 61 58 54 52 59 72 77 78 75 70 61 54 52 55 58 59 59 57 55 56 58 59 59 57 56 55 56 59 63 66 70 74 77 80 83 84 85 86 87 88 89 89 90 90 90 89 88 87 86 85 85 84 84 85 86 86 87 88 88 89 91
96 90 85 82 81 81 79 78 80 85 92 95 93 89 87 84 80 77 79 79 78 77 75 74 71 68 66 63 62 67 75 79 81 81 75 63 52 50 56 59 60 60 57 55 56 59 61 61 60 58 56 57 59 62 64 68 71 75 78 81 83 85 86 86 87 87 88 89 89 89 89 88 87 86 85 84 84 84 85 85 85 86 86 86 87 88
101 96 88 78 77 82 86 87 89 92 95 94 93 92 92 91 89 88 87 85 85 84 83 82 79 77 75 73 73 74 77 79 82 84 80 70 53 50 58 61 62 60 58 56 57 59 62 63 63 61 60 59 60 62 63 65 68 72 75 79 81 83 85 86 86 87 88 88 88 88 88 88 87 85 84 84 83 84 84 84 84 84 83 84 84 85
106 103 93 79 76 84 92 95 97 98 96 94 94 94 94 93 93 92 92 91 91 91 90 88 84 78 75 74 73 71 73 77 81 84 84 76 62 57 61 65 64 61 59 59 60 62 63 64 65 65 64 61 61 62 63 64 66 69 73 77 80 82 84 85 86 88 89 90 90 90 89 88 86 85 84 83 83 83 83 83 83 82 82 81 81 81
114 111 100 84 80 86 94 100 103 103 100 98 97 97 97 97 97 98 98 98 97 97 95 90 80 71 67 67 66 65 69 75 79 82 86 81 69 64 66 70 68 64 60 61 63 65 65 65 66 67 67 65 63 63 63 64 66 67 70 73 77 80 82 84 86 87 89 90 91 91 90 89 87 86 84 84 84 84 84 84 83 83 82 82 81 81
120 119 111 99 91 91 95 100 106 108 107 104 102 102 104 106 108 109 108 105 103 100 94 85 76 69 67 65 61 60 64 72 76 80 86 87 77 70 70 74 73 69 64 62 63 65 64 64 64 66 67 67 67 66 66 66 66 67 68 70 73 76 79 81 84 85 87 89 90 90 89 88 86 85 85 86 86 87 87 86 86 86 85 85 84 83
122 124 124 116 108 103 103 106 110 114 114 111 108 110 114 121 120 113 104 102 102 101 97 91 86 78 71 65 59 58 62 67 73 78 84 88 84 76 74 76 77 74 69 64 63 63 63 62 63 65 66 69 71 72 72 72 70 69 70 70 71 73 75 78 81 83 85 86 87 87 87 85 84 83 84 85 87 88 88 88 87 88 88 88 87 86
128 133 137 134 128 122 119 118 119 120 119 116 116 121 129 131 120 106 96 100 104 103 100 98 98 94 83 74 66 61 62 62 65 71 78 86 85 78 79 80 81 81 77 69 63 63 64 63 63 64 67 70 73 75 76 76 76 75 74 73 73 73 74 76 78 80 82 84 85 86 86 85 84 83 83 84 85 86 86 86 87 87 88 88 88 88
135 139 143 143 141 137 134 131 127 125 121 119 123 132 137 129 115 103 102 111 112 107 101 100 101 104 104 95 79 66 58 55 60 69 73 82 86 80 80 79 83 88 88 79 65 60 60 60 61 63 66 70 73 76 77 78 79 79 78 77 76 76 77 77 77 78 80 81 83 85 86 87 86 85 84 84 84 85 85 85 85 85 85 86 86 87
137 140 143 144 145 145 144 141 137 131 126 125 131 137 137 127 116 112 115 118 114 109 104 100 100 103 106 102 84 62 50 48 59 72 73 73 73 70 68 71 75 86 99 107 80 59 52 53 57 62 66 69 72 74 76 77 78 79 79 79 79 79 79 80 80 80 80 80 81 82 84 86 87 87 87 86 86 86 85 84 83 83 84 84 84 83
136 138 139 142 147 150 151 150 146 141 136 136 137 138 135 127 123 122 124 119 114 109 105 100 97 93 88 83 75 45 27 31 49 64 64 61 61 63 61 69 74 74 75 97 117 104 52 48 52 59 67 69 70 71 73 75 76 78 79 79 78 78 80 82 83 83 83 82 82 82 82 84 85 87 88 89 90 89 87 84 82 81 82 82 82 81
131 132 133 139 144 146 145 145 143 139 136 134 134 133 130 126 125 124 124 120 114 108 103 98 93 88 83 80 82 85 40 19 29 44 51 58 66 69 72 81 82 79 77 79 89 104 110 80 54 56 64 66 68 69 71 73 74 76 77 77 77 77 79 81 83 84 85 85 85 84 82 82 82 84 86 88 91 91 90 86 83 81 81 82 82 82
122 122 124 129 131 131 131 131 130 128 126 125 125 125 125 124 122 121 119 116 113 107 101 96 93 89 86 84 82 80 70 51 41 49 61 72 76 78 86 91 89 85 84 83 87 94 102 111 79 61 61 64 67 69 70 71 73 74 75 75 75 76 78 80 82 83 84 86 86 85 84 83 82 82 83 84 86 88 88 85 82 79 79 80 82 83
114 114 115 116 116 115 117 120 121 121 120 119 118 119 119 117 116 113 109 105 102 100 99 98 97 93 90 86 80 74 67 59 58 68 79 87 89 91 95 95 95 93 91 88 89 93 96 99 94 75 64 63 66 69 69 69 71 73 75 75 75 75 77 79 80 81 83 85 85 85 84 83 81 80 80 80 81 81 80 79 77 75 75 76 78 80
109 108 108 108 107 107 108 109 111 112 113 113 114 114 114 112 110 107 103 99 96 94 93 92 92 91 90 86 79 70 62 61 64 73 86 97 103 102 97 95 98 102 102 100 98 95 91 91 93 91 82 67 64 67 69 70 72 74 76 77 76 76 77 78 79 80 81 82 82 82 81 81 80 79 77 77 76 76 75 74 73 72 71 72 73 74
106 104 105 106 105 105 104 104 105 106 107 109 111 111 111 109 107 105 102 99 96 93 90 88 86 85 84 83 79 73 68 65 67 75 88 101 107 105 96 95 104 109 111 111 111 108 102 94 91 90 85 72 63 63 68 72 74 75 75 76 76 77 78 79 79 79 79 79 79 79 80 80 80 79 78 78 77 76 75 74 73 72 72 71 71 72
104 102 103 105 106 105 105 105 105 105 105 106 107 108 107 106 104 102 101 98 96 93 91 88 85 82 80 79 78 76 74 71 71 77 87 98 104 106 104 106 109 111 112 114 114 113 109 101 90 81 73 68 63 62 64 70 72 72 71 73 74 76 77 79 80 80 79 78 79 80 81 81 81 81 81 81 81 80 78 76 75 75 74 73 73 74
105 104 104 105 107 107 106 106 105 105 105 104 104 103 103 103 102 100 99 98 96 95 93 91 88 85 81 79 77 77 76 76 77 81 88 94 100 105 109 109 108 109 110 113 115 114 110 106 96 81 72 71 74 75 73 72 70 69 70 73 74 75 75 78 80 81 81 81 81 82 83 84 83 83 82 82 82 82 80 79 78 78 78 77 76 75
107 106 106 107 109 109 108 108 107 106 105 104 103 103 103 103 102 102 101 100 99 97 96 94 92 90 87 85 83 82 81 81 82 85 90 94 98 103 107 108 107 107 108 111 114 113 109 106 104 104 99 87 80 78 78 77 75 74 74 73 72 72 73 75 78 80 81 82 82 82 83 84 84 82 79 78 77 75 74 74 76 78 79 79 78 76
112 111 110 111 111 110 108 108 108 107 106 105 106 107 107 107 106 105 104 103 102 101 100 100 98 97 95 92 89 86 85 84 85 87 91 94 96 99 102 104 106 109 111 112 112 109 106 105 104 105 105 100 89 81 78 77 78 78 76 71 66 65 69 71 74 76 79 80 81 81 81 82 82 80 77 75 72 70 69 69 70 72 74 74 72 70
116 115 114 113 111 109 107 106 106 106 108 109 110 111 111 112 112 110 108 106 105 104 103 103 101 99 96 94 91 89 86 84 83 84 86 89 92 95 96 100 106 112 114 112 108 104 103 104 104 103 101 98 93 86 80 77 78 78 78 75 71 68 69 70 72 74 76 78 79 80 81 81 79 78 76 74 72 71 70 68 67 68 69 69 67 64
119 119 118 115 112 109 107 107 109 110 113 112 111 110 110 113 115 115 114 112 110 109 109 106 101 96 91 87 86 87 86 83 81 80 81 84 87 91 96 101 108 113 114 109 105 102 102 103 102 100 99 97 93 87 80 78 78 79 80 80 78 74 69 67 69 73 75 77 78 78 79 80 79 77 76 75 74 73 72 70 67 65 64 63 62 61
123 123 121 118 116 115 115 115 116 117 117 114 110 107 106 109 114 118 117 114 112 109 107 104 99 94 88 83 81 81 82 83 83 82 82 83 86 92 98 103 108 111 111 107 104 102 102 102 100 99 99 98 94 89 83 78 76 76 76 78 78 75 67 64 67 72 75 77 77 77 78 78 78 77 77 76 75 74 72 70 67 65 62 60 58 56
127 125 124 123 123 124 124 123 123 122 118 111 107 105 105 108 115 118 116 113 110 107 104 102 99 94 87 81 79 78 79 81 84 85 85 85 87 92 99 103 105 105 103 104 105 104 103 100 99 100 100 99 95 90 86 81 77 75 75 76 77 76 74 72 72 74 75 76 77 77 77 77 77 76 75 73 71 70 69 67 65 64 62 60 57 55
129 128 128 129 130 129 126 124 124 123 117 111 108 108 110 114 120 120 114 111 109 106 104 102 98 91 82 80 79 78 78 80 81 83 86 88 90 93 96 98 98 97 96 96 100 103 103 101 101 102 102 100 96 91 86 83 81 78 77 76 76 76 76 76 75 74 74 74 76 77 77 76 76 74 72 69 67 65 64 63 61 59 59 58 57 55
132 132 131 132 131 128 126 126 125 123 118 113 113 114 117 122 123 121 116 114 111 108 106 105 100 92 85 83 82 80 77 76 77 79 82 85 89 92 93 94 94 94 93 93 93 95 98 102 105 106 104 98 93 90 89 87 85 82 80 78 76 75 74 72 70 70 71 72 73 75 77 76 75 73 70 67 64 63 62 62 61 58 57 56 55 54
135 135 134 134 132 130 129 129 128 125 121 119 119 121 125 129 128 123 118 116 113 109 106 103 98 92 88 87 85 83 81 78 77 78 80 82 84 88 91 92 92 93 92 92 92 92 93 97 101 103 101 94 89 86 88 89 88 85 82 81 78 75 72 69 67 65 66 67 70 73 74 76 75 74 71 68 64 61 60 60 61 61 60 57 55 54
139 138 137 136 135 133 132 132 130 127 122 121 123 125 129 133 132 126 121 117 114 109 104 99 95 91 89 87 86 86 86 85 83 82 83 84 85 87 90 92 94 94 94 94 94 93 93 93 93 93 95 95 92 88 87 88 87 86 84 82 79 76 73 71 67 63 63 64 66 69 72 73 74 73 71 69 65 60 57 56 58 60 61 60 57 54
141 140 140 139 137 135 134 133 131 126 122 122 124 126 129 133 134 130 125 120 115 109 102 98 96 94 91 89 89 89 89 89 89 89 89 90 90 92 93 96 97 98 97 96 95 94 92 89 87 85 86 92 94 94 92 91 89 87 84 80 78 76 75 72 67 63 61 63 65 68 71 73 73 73 72 70 67 62 57 55 54 56 58 60 59 57
143 142 143 141 138 135 134 133 130 126 124 124 124 126 129 131 132 131 127 121 115 109 103 102 100 98 95 94 93 93 92 93 93 94 95 97 98 100 101 101 102 100 97 96 93 90 86 82 81 82 83 87 92 95 96 95 93 90 84 79 76 74 74 72 68 64 62 63 66 69 73 74 73 72 71 70 67 64 59 55 52 52 54 57 59 58
144 144 144 142 139 136 135 133 130 128 126 126 126 126 127 128 129 128 125 120 114 108 106 104 102 100 99 98 96 95 94 95 96 98 102 106 110 112 111 110 107 102 97 95 91 86 80 75 73 72 74 81 87 92 96 97 95 91 85 81 77 75 74 74 72 68 66 65 65 67 70 71 71 70 69 68 66 64 59 55 51 50 51 54 57 58